Flag for Portugal Weather past 2 weeks in Ponta Delgada, Azores, Portugal

Now
68 °F

Scattered clouds.


Feels Like: 68 °F
Forecast: 66 / 72 °F
Wind: 15 mph from Northwest

Location: Ponta Delgada / Nordela Acores

Current Time: Jun 30, 2015 at 3:00:06 PM

Latest Report: Jun 30, 2015 at 1:30 PM


Visibility: N/A

Pressure: 30.15 "Hg

Humidity: 73%

Dew point: 59 °F

Location of Ponta DelgadaLocation

Historic Weather in Ponta Delgada — Graph

°F

Ponta Delgada temperature yesterday

Maximum temperature yesterday: 72 °F (at 12:00 AM)
Minimum temperature yesterday: 64 °F (at 6:30 PM)
Average temperature yesterday: 69 °F

Past Weeks' High & Low Weather Summary

 TemperatureHumidityPressure
High75 °F (Jun 23, 5:00 PM)100% (Jun 15, 1:30 PM)30.39 "Hg (Jun 15, 1:30 PM)
Low59 °F (Jun 22, 5:00 AM)60% (Jun 30, 1:00 PM)30.04 "Hg (Jun 23, 3:30 AM)
Average69 °F84%30.20 "Hg
* Reported Jun 15 1:00 PM — Jun 30 1:30 PM, Ponta Delgada, Weather by CustomWeather, © 2015

Note: Actual official high and low records may vary slightly from our data, if they occured in-between our weather recording intervals... More about our weather records

Advertising

Ponta Delgada weather history for previous 24 hours

 ConditionsComfort  
Time TempWeatherWind HumidityBarometerVisibility
1:30 PM
Tue, Jun 30
68 °FScattered clouds.15 mph73%30.15 "HgN/A
1:00 PM70 °FScattered showers. Scattered clouds.21 mph60%30.15 "HgN/A
12:30 PM68 °FScattered showers. Scattered clouds.15 mph69%30.15 "HgN/A
12:00 PM68 °FScattered clouds.17 mph69%30.15 "HgN/A
11:30 AM68 °FScattered clouds.14 mph69%30.15 "HgN/A
11:00 AM66 °FScattered clouds.18 mph73%30.15 "HgN/A
10:30 AM66 °FPassing clouds.15 mph73%30.12 "HgN/A
10:00 AM68 °FPassing clouds.14 mph64%30.12 "HgN/A
9:30 AM66 °FPassing clouds.9 mph64%30.12 "HgN/A
9:00 AM66 °FScattered showers. Passing clouds.10 mph68%30.12 "HgN/A
8:30 AM66 °FScattered showers. Passing clouds.8 mph68%30.12 "HgN/A
8:00 AM64 °FPassing clouds.9 mph73%30.12 "HgN/A
7:30 AM63 °FPassing clouds.8 mph77%30.09 "HgN/A
7:00 AM63 °FPassing clouds.8 mph73%30.09 "HgN/A
6:30 AM63 °FPassing clouds.8 mph73%30.09 "HgN/A
6:00 AM63 °FPassing clouds.8 mph73%30.09 "HgN/A
5:30 AM63 °FPassing clouds.8 mph73%30.09 "HgN/A
5:00 AM63 °FPassing clouds.9 mph73%30.09 "HgN/A
4:30 AM63 °FPassing clouds.9 mph73%30.09 "HgN/A
4:00 AM63 °FPassing clouds.9 mph73%30.09 "HgN/A
3:30 AM63 °FPassing clouds.9 mph73%30.09 "HgN/A
3:00 AM63 °FPassing clouds.9 mph73%30.09 "HgN/A
2:30 AM63 °FPassing clouds.8 mph73%30.09 "HgN/A
2:00 AM63 °FPassing clouds.8 mph73%30.09 "HgN/A
1:30 AM64 °FPassing clouds.5 mph73%30.12 "HgN/A
1:00 AM64 °FPassing clouds.6 mph78%30.12 "HgN/A
12:30 AM64 °FPassing clouds.9 mph73%30.12 "HgN/A
12:00 AM64 °FPassing clouds.5 mph73%30.12 "HgN/A
11:30 PM
Mon, Jun 29
64 °FPassing clouds.3 mph73%30.12 "HgN/A
11:00 PM64 °FPassing clouds.5 mph83%30.12 "HgN/A
10:30 PM64 °FPassing clouds.7 mph83%30.09 "HgN/A
10:00 PM64 °FPassing clouds.7 mph78%30.09 "HgN/A
9:30 PM64 °FPassing clouds.9 mph78%30.09 "HgN/A
9:00 PM64 °FPassing clouds.9 mph78%30.09 "HgN/A
8:30 PM66 °FPassing clouds.8 mph73%30.09 "HgN/A
8:00 PM66 °FPartly sunny.8 mph78%30.07 "HgN/A
7:30 PM66 °FPartly sunny.15 mph83%30.07 "HgN/A
7:00 PM66 °FBroken clouds.6 mph83%30.07 "HgN/A
6:30 PM64 °FSprinkles. Broken clouds.5 mph94%30.07 "HgN/A
6:00 PM66 °FSprinkles. Broken clouds.6 mph94%30.07 "HgN/A
5:30 PM66 °FLight rain. Fog.9 mph88%30.07 "Hg2 mi
5:00 PM66 °FLight rain. Broken clouds.10 mph88%30.07 "Hg4 mi
4:30 PM66 °FLight rain. Broken clouds.17 mph88%30.04 "HgN/A
4:00 PM66 °FLight rain. Broken clouds.15 mph88%30.04 "HgN/A
3:30 PM68 °FLight rain. Partly sunny.15 mph83%30.04 "HgN/A
3:00 PM70 °FPartly sunny.15 mph83%30.04 "HgN/A
Weather by CustomWeather, © 2015

See weather overviewHow to use our weather pages